Location: Baumgarten
(49.0970°N, 12.7493°E)
Time: 08:12:30
(UTC+00:00)

Cosmos 2333 - Pass Details

Date: 05 July 2020
Orbit: 828 x 867 km, 70.9° (Epoch: 04 August)

Event Time Altitude Azimuth Distance (km) Brightness Sun altitude
Rises 20:30:00 0° 198° (SSW) 3,372 7.0 -9.5°
Reaches altitude 10° 20:32:26 10° 195° (SSW) 2,447 6.3 -9.7°
Maximum altitude 20:38:00 68° 114° (ESE) 908 4.2 -10.3°
Drops below altitude 10° 20:43:40 10° 33° (NNE) 2,490 6.9 -10.8°
Sets 20:46:09 0° 31° (NNE) 3,436 7.7 -11.1°
